GW7103 Weather Reports


time (UTC)temp
C
wind
direction
speed
KPH
gust
KPH
rain 1hr
cm
rain 24hr
cm
rain mn
cm
humidity
%
barometer
mb
20260504211524 11 352 12.9 22.5 0.00 0.00 0.00 69 1005.6
20260504210027 10 337 12.9 20.9 0.00 0.00 0.00 70 1005.6
20260504204528 10 310 11.3 17.7 0.00 0.00 0.00 72 1005.4
20260504203021 10 328 12.9 20.9 0.00 0.00 0.00 73 1005.5
20260504201522 10 323 12.9 22.5 0.00 0.00 0.00 74 1005.4
20260504200025 10 322 11.3 19.3 0.00 0.03 0.00 74 1005.4
20260504194537 10 317 16.1 24.1 0.00 0.03 0.00 73 1005.4
20260504193031 10 295 12.9 16.1 0.00 0.03 0.00 75 1005.4
20260504191516 8 293 8.0 14.5 0.00 0.03 0.00 79 1005.4
20260504190029 7 297 3.2 6.4 0.00 0.05 0.00 81 1005.5
20260504184533 8 278 4.8 8.0 0.00 0.08 0.00 80 1005.4
20260504183027 7 275 3.2 4.8 0.00 0.08 0.00 80 1005.4
20260504181516 7 275 3.2 6.4 0.00 0.10 0.00 79 1005.5
20260504180022 7 273 3.2 8.0 0.00 0.15 0.00 81 1005.4
20260504174504 7 278 4.8 6.4 0.00 0.15 0.00 81 1005.6
20260504173014 7 314 4.8 8.0 0.00 0.15 0.00 82 1005.6
20260504171516 7 316 6.4 11.3 0.00 0.15 0.00 81 1005.8
20260504081529 3 321 6.4 8.0 0.00 1.17 0.00 62 1005.9
20260504050012 4 328 4.8 9.7 0.00 1.32 0.00 66 1005.4
20260504044518 5 339 9.7 16.1 0.00 1.32 0.00 65 1005.2
20260504043022 5 336 9.7 17.7 0.00 1.32 0.00 65 1005.1
20260504041504 5 345 4.8 19.3 0.00 1.32 0.00 63 1005.0
20260504040010 5 352 3.2 17.7 0.00 1.32 0.00 63 1005.0
20260504034528 5 345 6.4 19.3 0.00 1.32 1.32 59 1004.8
20260504033023 5 338 6.4 17.7 0.00 1.32 1.32 64 1004.7
20260504031526 6 355 9.7 24.1 0.00 1.32 1.32 55 1004.8
20260504030009 6 304 9.7 20.9 0.00 1.32 1.32 56 1004.7
20260504024510 6 352 14.5 25.7 0.00 1.32 1.32 56 1004.7
20260504023017 6 338 16.1 25.7 0.00 1.37 1.32 55 1004.5
20260504021524 6 347 19.3 27.4 0.00 1.40 1.32 56 1004.3
20260504020025 6 326 16.1 27.4 0.00 1.40 1.32 55 1004.2
20260504014515 6 330 19.3 27.4 0.00 1.40 1.32 55 1004.2
20260504013012 6 338 14.5 25.7 0.00 1.42 1.32 56 1004.2
20260504011518 6 347 16.1 24.1 0.00 1.45 1.32 58 1003.9
20260504010024 6 328 14.5 24.1 0.00 1.47 1.32 59 1003.8
20260504004529 6 326 14.5 19.3 0.00 1.52 1.32 60 1003.7
20260504003009 6 354 19.3 27.4 0.00 1.55 1.32 60 1003.5
20260504001519 7 340 17.7 20.9 0.00 1.55 1.32 60 1003.4
20260504000022 7 349 17.7 25.7 0.00 1.55 1.32 60 1003.0
20260503234528 7 342 17.7 25.7 0.00 1.55 1.32 66 1002.7
20260503233025 6 354 1.6 4.8 0.00 1.55 1.32 86 1002.7
20260503231516 6 354 0.0 3.2 0.00 1.55 1.32 91 1002.4
20260503230018 6 354 0.0 0.0 0.00 1.55 1.32 89 1002.4
20260503224520 6 75 0.0 3.2 0.00 1.55 1.32 83 1002.4
20260503223026 7 7 1.6 4.8 0.00 1.55 1.32 82 1002.5
20260503221514 7 2 0.0 3.2 0.00 1.55 1.32 86 1002.4
20260503220018 7 113 0.0 6.4 0.00 1.55 1.32 86 1002.3
20260503214521 7 64 1.6 8.0 0.00 1.55 1.32 81 1002.6
20260503213041 7 82 0.0 6.4 0.00 1.55 1.32 84 1002.7